RH
78 64 44 28 30 28 29 32 33 38 44 43 45 45 41 39 40 42 41 48 49 50 57 60 62 61 62 69 74 83 82 82 77 71 72 75 75 77 80 87 97 97 98 83
86 69 53 33 31 30 31 34 36 41 47 44 42 41 41 42 43 46 42 47 54 47 52 60 60 62 62 66 76 83 83 84 86 66 71 75 77 78 74 82 91 92 98 68
97 86 63 40 32 32 33 36 40 43 48 48 41 43 42 42 39 45 43 46 56 59 49 50 54 58 63 67 70 79 85 87 85 86 75 73 78 80 75 74 90 93 81 65
98 95 79 52 36 34 35 36 37 36 48 52 41 38 37 40 41 46 41 45 54 59 67 56 46 45 54 62 68 75 81 88 85 84 81 75 70 76 74 69 75 81 68 64
98 99 99 74 49 39 38 34 34 40 45 45 46 42 40 38 39 42 41 43 49 60 68 65 53 43 40 51 65 76 77 85 84 82 75 69 65 64 68 66 67 74 65 58
98 98 99 87 57 45 38 33 35 36 37 40 45 39 35 35 38 37 36 36 48 55 57 61 57 44 41 39 55 73 76 81 87 85 76 70 65 60 63 60 59 61 61 56
96 99 98 97 66 52 41 38 43 38 37 35 35 33 33 35 38 37 37 32 39 50 53 60 61 46 37 38 45 61 76 78 86 87 74 72 59 55 54 54 58 57 56 52
94 98 98 99 88 63 56 52 49 44 39 33 36 37 34 35 38 37 38 33 34 45 49 60 59 52 43 39 40 50 65 77 80 82 77 64 49 51 54 52 56 52 53 50
91 95 98 98 98 84 74 71 64 54 42 38 38 42 41 39 41 39 41 36 34 39 45 59 59 59 53 45 44 42 51 69 78 75 73 67 56 54 46 49 53 48 49 48
98 99 99 98 98 96 81 78 73 58 49 45 45 44 42 35 38 40 45 38 32 35 43 57 60 59 57 61 52 50 52 59 73 77 76 64 56 51 46 49 48 48 49 47
97 99 98 98 98 98 89 82 72 62 55 52 52 53 46 40 39 40 44 38 34 37 41 49 57 61 57 60 64 63 51 56 61 72 73 66 50 46 44 44 45 46 47 45
99 98 99 99 98 98 91 84 80 73 68 60 59 57 53 45 39 40 44 36 36 32 35 42 48 56 61 57 59 62 63 54 50 52 50 45 44 43 45 44 45 44 51 44
98 98 98 98 98 98 94 80 74 71 67 61 58 54 52 46 42 41 45 39 35 34 34 38 40 46 52 59 58 52 55 54 50 42 34 33 32 35 38 41 45 46 47 45
97 98 98 98 98 98 94 84 73 74 65 64 58 51 50 47 43 44 43 39 36 37 38 37 40 43 44 50 52 54 54 57 59 46 39 33 30 29 29 34 37 40 42 43
98 98 98 99 98 98 94 88 79 75 72 73 67 58 52 49 47 48 45 41 37 38 42 42 42 44 45 47 52 52 48 47 49 50 45 42 36 34 33 33 33 35 36 38
90 98 98 99 98 99 99 94 86 84 88 84 72 67 57 53 52 51 51 44 39 39 39 41 43 49 51 53 62 52 51 53 54 49 49 47 46 40 37 36 36 36 36 36
81 93 98 99 98 98 97 91 87 89 95 94 82 75 69 65 62 63 52 44 42 42 41 42 46 49 53 55 57 48 44 52 58 52 51 52 50 51 43 41 42 44 44 45
71 86 92 96 99 99 98 95 94 96 97 92 87 85 80 67 61 63 53 47 45 45 46 52 59 58 59 61 56 44 42 47 53 48 50 58 52 51 53 50 47 48 47 47
80 91 97 99 99 99 95 98 98 99 97 89 84 83 78 69 60 55 57 52 53 54 57 62 67 66 64 56 55 56 51 51 59 55 55 59 53 49 48 49 50 49 49 53
86 98 98 99 98 99 98 99 98 98 97 94 91 86 83 76 66 60 56 54 55 58 57 63 66 61 54 57 57 58 57 57 65 61 58 63 64 63 62 58 56 56 58 63
97 99 99 98 99 98 99 98 98 96 92 87 89 89 90 87 78 70 62 61 65 67 64 71 71 65 62 61 58 59 57 61 65 65 66 64 60 60 62 64 68 69 65 60
98 98 96 98 98 98 98 97 96 87 82 82 84 88 87 87 86 79 76 75 78 79 75 78 71 61 64 64 60 61 60 61 65 64 61 57 57 58 57 55 56 55 53 49
99 99 99 99 98 98 93 89 85 79 79 80 83 88 90 92 91 95 94 95 94 87 83 78 68 70 71 69 67 67 65 64 62 60 58 56 54 52 51 51 49 48 46 47
98 98 98 98 97 95 88 80 74 77 82 86 90 94 95 98 98 98 98 96 93 93 90 80 78 74 73 73 71 71 72 69 65 58 57 55 52 49 48 47 46 47 47 43
98 97 98 97 83 84 83 81 80 84 88 91 96 97 98 98 98 98 97 97 95 90 85 84 78 77 75 74 79 84 78 71 67 67 65 61 57 55 54 53 51 51 50 50
98 97 95 86 85 83 84 87 89 90 92 96 97 97 97 97 97 96 95 93 90 87 86 79 79 79 79 81 86 83 79 78 70 66 61 58 57 55 54 55 56 56 56 55
96 97 98 93 90 92 91 93 93 95 98 98 97 97 95 96 96 94 90 90 85 78 78 77 78 80 81 82 83 81 77 76 76 69 66 64 60 59 61 62 63 64 64 63